Theta_e
317 321 321 324 330 346 346 343 343 344 346 344 345 344 343 343 341 340 341 333 334 340 346 348 346 343 342 341 339 339 340 340 340 340 338 336 335 335 336 336 336 336 335
314 315 317 319 325 332 345 346 342 341 341 345 342 343 342 342 342 342 340 342 331 335 340 345 347 345 343 341 339 338 339 339 339 339 337 336 335 334 334 335 335 335 335
313 315 315 316 318 324 330 334 344 343 339 340 342 341 342 343 341 340 340 339 339 329 333 339 341 344 344 343 341 339 338 338 338 338 337 335 334 334 333 333 332 333 334
311 312 313 314 318 319 325 327 328 340 340 337 337 342 341 341 342 341 339 339 340 341 332 333 336 340 340 342 342 339 339 338 337 337 336 335 334 334 333 332 331 331 331
308 308 306 309 315 315 318 322 325 324 336 338 334 337 344 340 340 339 338 338 339 341 341 331 331 332 335 339 341 342 339 340 338 338 336 335 334 334 333 331 330 330 330
303 303 304 305 310 314 315 316 319 325 323 334 334 334 340 343 340 339 338 337 338 340 342 342 339 337 329 335 338 341 341 339 339 339 337 336 334 333 332 331 330 329 330
302 302 302 304 306 311 314 316 318 321 324 326 330 330 333 342 341 340 339 338 337 338 343 341 342 341 336 330 334 340 342 341 341 340 338 336 335 333 332 331 330 329 329
300 301 302 303 304 305 307 313 315 317 319 323 324 327 325 326 331 338 339 339 340 338 339 342 341 341 340 339 337 334 338 340 341 340 338 335 334 333 332 331 330 329 329
298 300 301 303 304 305 304 306 313 312 313 322 324 321 318 315 323 330 333 336 339 340 340 340 342 341 341 340 335 332 326 328 335 339 337 336 334 333 332 332 331 330 329
296 296 298 299 301 303 306 307 307 311 314 314 322 325 326 329 319 317 330 333 337 337 340 339 341 341 340 342 335 327 319 319 324 333 336 336 335 334 333 332 332 331 330
293 293 295 296 297 300 301 303 305 308 313 314 316 324 328 328 327 321 317 325 332 336 338 340 340 341 340 341 341 333 316 316 318 325 331 334 335 334 334 333 332 332 331
291 292 293 295 298 300 302 304 306 308 309 315 318 324 324 321 320 319 315 320 326 332 337 339 341 341 340 340 335 323 317 312 314 319 324 328 331 333 333 333 333 333 332
288 290 291 293 295 297 299 301 304 309 310 315 318 319 327 327 326 323 317 315 316 326 333 338 338 340 338 340 338 322 315 312 312 314 318 321 324 327 330 331 332 333 333
288 289 289 291 292 293 295 299 306 306 314 317 319 321 325 331 331 329 323 320 317 321 329 331 336 338 338 338 333 314 332 310 310 310 312 315 317 319 320 323 326 329 330
288 288 288 288 289 290 292 295 296 296 304 310 319 323 326 323 324 328 329 327 323 318 321 330 330 333 333 320 309 335 335 313 308 308 308 310 313 314 315 317 319 321 323
287 287 286 286 288 287 290 290 289 291 293 299 297 302 301 310 310 311 318 321 323 322 319 324 315 310 311 310 307 311 307 303 300 299 300 303 304 307 310 311 313 315 317
285 286 286 285 285 285 286 287 286 286 286 288 290 291 292 295 297 301 302 305 306 310 318 308 304 303 299 301 303 303 304 303 305 300 299 300 300 302 304 305 306 308 309
285 285 284 284 283 284 283 282 282 283 283 284 285 285 286 289 289 293 294 295 297 299 307 314 295 296 291 296 296 296 297 297 301 299 298 298 298 298 300 300 300 300 301
283 283 283 282 282 282 282 282 282 281 282 282 283 283 283 284 283 285 288 289 291 292 292 293 289 290 290 289 290 293 294 294 299 298 295 296 297 299 299 296 295 296 297
283 282 282 282 281 282 282 281 281 281 281 281 281 282 282 282 282 282 283 285 286 287 287 286 285 285 285 285 287 287 287 291 296 293 294 294 296 299 299 297 294 295 294
285 284 282 281 281 281 281 282 282 281 282 282 281 281 283 284 284 284 282 282 285 284 284 283 283 283 282 282 282 285 285 286 294 290 290 292 299 297 296 297 294 294 291
284 284 282 280 279 280 280 281 280 280 279 280 280 280 281 282 282 282 282 283 282 282 282 282 281 281 280 281 283 284 284 283 283 289 286 287 296 291 293 294 292 290 289
283 283 282 281 279 278 279 279 280 279 278 278 278 279 279 280 281 281 280 280 281 281 281 282 279 279 279 280 281 282 282 284 284 287 286 286 289 288 290 290 291 289 288
281 281 281 281 280 279 278 279 279 280 278 277 277 277 276 277 278 280 280 279 278 278 279 280 280 279 280 280 282 282 282 284 286 285 285 281 284 284 287 289 291 289 287
280 280 280 279 279 278 277 278 278 278 278 276 276 276 276 275 276 278 278 277 275 275 278 279 279 279 279 279 280 282 280 281 280 283 281 280 282 282 284 288 290 288 287
280 279 278 279 277 277 276 276 278 278 277 277 276 276 275 274 274 274 275 274 272 273 275 277 278 279 279 279 278 279 279 278 278 281 281 279 280 281 279 286 285 287 289
Wind_Speed
9 9 9 8 9 10 10 8 9 10 14 16 15 15 15 14 13 8 7 15 14 14 16 16 18 17 16 14 13 12 11 13 14 14 15 15 14 13 12 12 11 12 12
10 10 11 10 10 9 10 11 10 9 10 14 17 17 16 15 15 13 10 10 14 14 14 16 18 19 18 17 15 14 13 14 14 15 14 15 14 13 12 12 12 12 12
12 12 11 11 12 10 11 12 13 12 10 10 18 16 15 17 15 15 13 11 13 14 15 14 15 19 19 19 16 15 14 14 14 15 15 16 16 14 13 13 12 11 11
14 13 11 11 12 12 11 8 11 11 13 11 10 13 13 15 17 16 14 13 11 12 14 15 15 15 18 19 20 20 17 15 15 15 16 16 15 15 15 14 13 12 11
15 13 10 12 14 12 12 12 9 10 11 12 11 12 13 14 16 14 17 17 15 13 11 19 18 15 15 18 21 21 21 19 19 18 17 17 17 17 17 16 14 13 12
13 13 12 12 14 13 12 13 15 11 10 11 11 12 13 13 15 13 16 15 16 16 14 14 15 14 14 16 19 21 22 22 21 20 20 19 19 18 18 17 17 16 15
15 14 11 11 12 14 14 15 15 16 11 11 10 10 11 16 14 14 13 14 16 16 14 15 11 11 13 17 19 20 22 22 23 22 22 21 20 20 20 20 19 18 17
16 13 12 13 12 11 14 17 16 13 14 10 6 9 6 8 12 13 12 13 16 14 16 15 16 15 14 13 18 19 22 22 22 22 22 21 21 21 21 21 21 21 20
16 15 15 14 14 12 10 13 16 16 12 13 14 7 6 7 3 5 14 12 15 13 13 16 16 17 16 13 16 19 19 18 20 23 22 21 21 22 22 22 22 22 22
16 16 15 14 13 10 12 12 11 15 13 15 14 9 15 4 5 4 7 13 14 15 17 14 15 15 15 12 15 14 20 19 18 20 22 22 22 22 22 23 23 23 24
16 16 15 15 13 10 11 13 12 12 15 15 15 13 13 12 6 6 12 7 12 13 14 14 14 14 15 14 12 14 15 20 21 20 20 21 23 23 23 24 24 25 25
10 14 16 14 13 12 12 12 13 15 14 18 16 16 10 9 10 6 4 8 8 11 14 14 14 14 14 13 13 13 19 17 18 21 21 21 20 22 24 25 25 26 26
11 13 15 14 11 13 13 13 13 14 14 17 20 14 13 11 11 13 9 10 8 9 9 12 13 13 13 12 12 16 15 17 18 18 19 20 20 19 19 22 24 26 26
11 15 14 14 14 13 12 11 7 9 14 16 21 17 13 12 12 11 11 12 11 13 9 12 11 12 11 12 9 7 9 14 15 14 13 13 13 13 13 13 16 22 26
11 13 13 13 13 15 15 13 10 13 15 4 10 14 13 4 3 8 9 9 13 14 14 11 5 1 2 8 10 4 5 11 13 13 11 12 12 12 12 14 14 13 15
17 16 15 15 15 17 18 18 15 17 14 10 9 11 10 7 6 5 3 3 5 8 8 2 7 7 8 8 11 12 15 20 21 14 11 6 4 6 8 10 11 13 14
19 18 18 17 16 20 20 17 20 21 20 16 16 16 16 12 7 7 7 6 5 5 9 5 8 11 11 10 10 10 10 10 9 16 17 16 15 12 7 7 9 10 10
18 19 19 18 17 18 18 20 21 23 18 21 20 21 19 12 15 12 8 10 8 6 4 7 5 6 8 10 11 11 9 9 7 12 13 15 14 14 10 10 12 12 12
17 18 18 19 17 17 18 21 19 18 20 21 22 21 22 19 18 14 12 10 10 10 12 10 7 6 3 9 10 9 9 8 7 14 15 14 14 11 15 19 20 18 17
14 17 17 16 18 19 20 21 20 17 19 18 19 19 22 21 23 18 15 13 11 12 12 10 7 6 4 4 6 8 7 8 6 9 10 9 11 6 13 9 20 18 17
15 13 15 17 18 19 16 18 19 18 18 19 17 18 19 27 33 28 16 16 15 12 10 10 7 9 10 9 8 6 6 6 3 10 8 7 7 9 6 8 17 15 19
17 17 19 20 19 14 28 28 21 17 18 18 17 17 16 22 24 28 30 29 27 15 15 12 12 13 15 11 10 10 9 6 5 9 10 7 9 12 9 10 9 13 20
16 18 19 20 22 19 28 26 24 17 17 18 19 18 16 15 16 15 22 23 27 27 19 16 15 14 13 13 12 11 11 9 8 9 10 7 11 10 11 10 7 14 21
16 16 18 19 20 19 26 21 19 17 17 19 20 19 17 19 19 16 14 16 16 19 20 13 14 13 13 12 10 7 8 8 5 8 11 5 8 8 9 10 4 18 21
14 15 16 18 19 20 29 25 17 14 15 17 17 20 19 21 29 24 14 14 15 15 13 18 18 17 16 17 16 9 10 8 6 4 9 7 7 9 8 5 7 19 20
12 12 14 16 20 18 27 26 19 11 15 12 15 17 27 22 25 24 16 16 15 14 14 14 12 13 13 13 17 12 9 8 8 3 10 8 7 9 6 3 10 8 12
Wind_Direction
302 302 294 287 291 275 238 232 243 243 245 235 230 232 231 230 237 229 226 169 189 199 209 203 196 195 193 192 193 195 199 198 193 194 192 182 181 181 174 170 172 174 182
306 299 288 285 282 278 279 241 218 230 234 247 238 232 232 232 224 226 226 185 186 192 208 210 199 197 198 198 199 199 199 204 201 196 192 184 181 181 179 178 183 187 192
304 298 289 283 277 270 271 304 244 223 234 231 246 238 230 233 231 222 227 231 182 196 198 212 209 197 197 196 199 206 205 202 204 198 192 188 190 182 182 187 193 199 207
306 298 292 284 284 283 270 263 294 239 228 223 228 240 239 232 227 229 220 226 222 197 202 206 210 205 200 197 198 203 208 202 200 198 192 191 191 188 190 195 196 203 208
307 303 289 282 275 276 275 272 267 287 252 227 219 225 236 239 229 223 227 219 223 223 201 189 205 206 203 202 202 202 205 203 202 198 195 193 195 195 196 197 199 204 203
301 298 292 284 288 278 269 263 263 260 273 247 226 225 229 231 233 224 225 224 216 219 226 212 194 211 206 205 204 204 205 207 206 203 198 199 200 199 202 202 201 202 207
304 295 289 286 282 282 279 275 271 258 259 275 232 229 220 226 232 233 227 220 220 214 216 222 194 202 199 209 206 205 209 208 208 205 203 201 200 203 203 204 204 205 207
312 301 293 288 282 284 282 278 271 270 256 241 273 247 226 229 227 222 234 227 223 216 211 216 214 212 212 196 212 206 207 210 208 206 207 205 203 203 206 207 208 206 207
315 314 310 302 288 278 270 279 284 251 278 266 216 253 219 215 164 196 233 238 228 220 219 214 220 215 206 215 196 200 202 201 208 207 208 207 206 207 206 209 210 212 211
325 317 315 315 318 309 280 264 259 275 249 257 261 222 247 276 176 202 210 226 227 224 218 218 214 221 213 207 221 205 186 198 202 209 208 208 209 208 211 212 212 213 214
329 322 319 312 301 289 276 277 283 255 265 252 246 244 228 223 223 224 207 194 228 223 223 219 222 213 211 208 212 215 183 198 201 206 210 211 208 208 211 214 215 216 215
327 330 324 311 306 296 286 271 264 260 241 253 249 249 220 199 194 175 197 219 204 217 223 212 215 219 216 211 214 209 184 192 204 209 212 214 213 211 213 213 215 215 217
338 337 332 326 322 314 301 289 273 254 236 239 244 249 241 215 209 218 198 199 234 259 233 223 218 218 221 213 211 202 186 195 200 205 212 214 216 217 217 218 218 219 219
338 341 342 335 339 337 327 311 306 311 232 241 240 240 258 230 226 225 210 195 206 214 224 228 222 223 220 222 219 193 214 204 215 211 216 219 216 220 225 233 232 227 223
345 358 355 350 358 359 4 10 13 4 340 347 292 231 261 237 277 226 218 219 212 207 203 202 190 152 351 57 4 195 222 188 203 213 218 223 225 223 216 218 228 235 239
2 7 8 11 13 17 23 29 26 22 19 20 23 31 20 32 52 47 357 243 215 219 206 341 40 56 27 61 37 58 59 77 51 49 51 33 306 263 249 238 234 236 237
10 13 16 16 22 29 27 28 40 35 31 28 38 44 36 22 30 44 37 34 36 311 202 121 66 25 7 42 37 41 46 42 56 41 46 35 29 15 320 285 276 266 258
16 17 15 21 24 30 27 32 35 38 31 33 41 45 37 32 31 32 47 60 51 16 341 159 65 89 338 31 41 39 43 32 41 51 45 42 23 7 5 28 26 9 335
23 22 17 19 24 28 31 39 36 34 39 35 38 41 42 34 32 22 19 43 51 50 49 61 75 50 327 22 31 25 41 11 38 44 25 34 18 20 38 53 42 32 17
31 31 26 20 28 29 31 38 32 30 37 37 36 36 49 38 42 29 21 19 40 58 57 61 51 46 40 18 34 23 13 20 39 32 33 32 5 18 48 40 30 36 25
45 40 39 32 32 34 30 39 42 32 34 43 38 34 43 50 49 49 40 15 38 50 56 57 42 52 42 30 14 13 13 11 31 29 12 359 28 41 26 359 20 16 17
37 42 41 41 36 33 36 45 45 39 38 37 40 43 34 43 49 48 54 42 47 41 52 53 40 40 31 19 15 23 11 10 349 23 359 340 27 27 357 349 29 2 12
41 39 41 43 42 36 31 37 42 48 47 41 39 38 36 39 42 48 54 49 48 48 47 54 54 41 35 18 8 16 15 6 1 357 2 354 21 353 347 326 55 10 5
43 42 38 40 41 38 30 35 41 51 48 47 42 41 38 38 29 42 50 54 46 48 40 51 50 46 40 19 359 20 4 358 358 57 14 360 346 337 316 302 32 5 352
45 44 45 38 40 38 29 22 36 42 52 49 45 40 36 33 29 28 38 51 55 46 48 56 60 54 48 36 18 11 14 13 17 28 29 346 349 322 302 304 8 345 340
52 52 46 43 39 39 37 33 26 33 38 38 42 41 41 43 38 34 36 33 37 24 22 27 34 43 37 32 32 26 10 11 7 344 44 345 340 346 331 298 342 326 318